Location: Unspecified
(35.7250°N, 0.0000°E)
Time: 08:36:10
(UTC+00:00)

Vanguard 1 Rocket - Pass Details

Date: 22 June 2019
Orbit: 651 x 4225 km, 34.3° (Epoch: 21 July)

Event Time Altitude Azimuth Distance (km) Brightness Sun altitude
Rises 12:26:31 0° 188° (S) 8,433 12.5 76.6°
Reaches altitude 10° 12:36:33 10° 171° (S) 7,360 12.3 75.6°
Maximum altitude 12:49:16 17° 140° (SE) 6,275 11.9 74.0°
Drops below altitude 10° 12:59:44 10° 108° (ESE) 6,062 11.6 72.5°
Sets 13:06:12 0° 90° (E) 6,429 11.6 71.4°
